Tracking 28790 objects as of 19-Apr-2024
HD Live streaming from Space Station
objects crossing your sky now

THOR ABLESTAR DEB

Track THOR ABLESTAR DEB now!
10-day predictions


NORAD ID: 123
Int'l Code: 1961-015H
Perigee: 693.3 km
Apogee: 844.7 km
Inclination: 66.7 °
Period: 100.1 minutes
Semi major axis: 7139 km
RCS: 0.1202 m2 (medium)
Launch date: June 29, 1961
Source: United States (US)
Launch site: AIR FORCE EASTERN TEST RANGE (AFETR)

Note: This is SATELLITE DEBRIS
Your satellite tracking list
Your tracking list is empty




NASA's NSSDC Master Catalog

Two Line Element Set (TLE):
1 00123U 61015H   24109.91810284  .00002642  00000-0  82810-3 0  9994
2 00123  66.6890   9.9655 0105984 130.2193 230.8244 14.38985492265844
Source of the keplerian elements: AFSPC